This is the latest recevied weather packets stored in our database for station/object SP1BMW-13. If no packets are shown the sender has not sent any weather packets the latest 10 day(s).
| Time | Temp. | Humidity | Pressure | Rain* | Wind** | Luminosity | Snow |
|---|---|---|---|---|---|---|---|
| 1787489867 | 19.44° C | 55% | 1017.2 hPa | 0 mm | 1.79 m/s, 202° | 322 W/m² | - |
| 1787489805 | 19.44° C | 56% | 1017.3 hPa | 0 mm | 1.79 m/s, 209° | 298 W/m² | - |
| 1787489746 | 19.44° C | 54% | 1017.2 hPa | 0 mm | 2.68 m/s, 341° | 374 W/m² | - |
| 1787489685 | 19.44° C | 56% | 1017.5 hPa | 0 mm | 1.79 m/s, 261° | 529 W/m² | - |
| 1787489625 | 19.44° C | 54% | 1017.4 hPa | 0 mm | 1.79 m/s, 272° | 668 W/m² | - |
| 1787489566 | 19.44° C | 54% | 1017.2 hPa | 0 mm | 1.34 m/s, 265° | 350 W/m² | - |
| 1787489506 | 19.44° C | 53% | 1017.3 hPa | 0 mm | 2.68 m/s, 240° | 342 W/m² | - |
| 1787489445 | 19.44° C | 53% | 1017.3 hPa | 0 mm | 3.13 m/s, 291° | 311 W/m² | - |
| 1787489385 | 19.44° C | 55% | 1017.4 hPa | 0 mm | 1.34 m/s, 140° | 260 W/m² | - |
| 1787489325 | 20° C | 55% | 1017.4 hPa | 0 mm | 1.34 m/s, 245° | 384 W/m² | - |
| 1787489265 | 20° C | 53% | 1017.4 hPa | 0 mm | 3.58 m/s, 178° | 724 W/m² | - |
| 1787489206 | 19.44° C | 55% | 1017.4 hPa | 0 mm | 1.79 m/s, 169° | 544 W/m² | - |
| 1787489146 | 19.44° C | 56% | 1017.3 hPa | 0 mm | 0.89 m/s, 164° | 805 W/m² | - |
| 1787489086 | 19.44° C | 57% | 1017.4 hPa | 0 mm | 0.89 m/s, 258° | 366 W/m² | - |
| 1787489025 | 18.89° C | 59% | 1017.4 hPa | 0 mm | 1.34 m/s, 227° | 594 W/m² | - |
| 1787488965 | 18.89° C | 58% | 1017.3 hPa | 0 mm | 0.89 m/s, 257° | 745 W/m² | - |
| 1787488906 | 18.89° C | 58% | 1017.3 hPa | 0 mm | 1.34 m/s, 253° | 742 W/m² | - |
| 1787488845 | 18.89° C | 57% | 1017.4 hPa | 0 mm | 1.34 m/s, 247° | 552 W/m² | - |
| 1787488785 | 18.89° C | 58% | 1017.3 hPa | 0 mm | 1.79 m/s, 270° | 732 W/m² | - |
| 1787488725 | 18.89° C | 58% | 1017.4 hPa | 0 mm | 3.13 m/s, 237° | 318 W/m² | - |
| 1787488665 | 18.89° C | 58% | 1017.3 hPa | 0 mm | 1.79 m/s, 217° | 478 W/m² | - |
| 1787488605 | 18.33° C | 58% | 1017.2 hPa | 0 mm | 1.34 m/s, 245° | 407 W/m² | - |
| 1787488546 | 18.33° C | 59% | 1017.5 hPa | 0 mm | 1.79 m/s, 359° | 293 W/m² | - |
| 1787488486 | 18.33° C | 58% | 1017.3 hPa | 0 mm | 1.79 m/s, 266° | 333 W/m² | - |
| 1787488426 | 18.33° C | 59% | 1017.5 hPa | 0 mm | 0 m/s | 291 W/m² | - |
* Rain latest hour (hover to see other rain measurements)
** Current wind speed in m/s (hover to see current wind gust speed)